Regional Weather Roundup
Issued by NWS

Home | Current Version | Previous Version | Graphics & Text | Print | Product List | Glossary On
Versions: 1 2 3 4 5 6 7 8 9 10 11 12 13 14 15 16 17 18 19 20 21 22 23 24 25 26 27 28 29 30 31 32 33 34 35 36 37 38 39 40 41 42 43 44 45 46 47 48 49 50
000
ASUS43 KOAX 302102
RWRNE

WEATHER ROUNDUP FOR NEBRASKA
NATIONAL WEATHER SERVICE OMAHA NE
400 PM CDT MON MAR 30 2015

NOTES: SATELLITE DATA IS BEING USED TO AUGMENT CLOUD COVER ABOVE
       12000 FEET.
       "FAIR" INDICATES FEW OR NO CLOUDS BELOW 12,000 FEET WITH NO
       SIGNIFICANT WEATHER AND/OR OBSTRUCTIONS TO VISIBILITY.

  * THESE STATIONS DO NOT REPORT WEATHER SUCH AS RAIN...SNOW OR FOG.

NEZ001>004-019>022-054>056-302200-
NEBRASKA PANHANDLE

CITY           SKY/WX    TMP DP  RH WIND       PRES   REMARKS
SCOTTSBLUFF    MOSUNNY   71  24  17 W7G24     30.08F
ALLIANCE       MOSUNNY   68  25  19 NW17      30.06F
CHADRON        SUNNY     70  28  21 W14G28    30.04F
SIDNEY         SUNNY     71  25  17 NW17G26   30.09F
$$

NEZ057>060-069>072-079>082-302200-
SOUTHWEST NEBRASKA

CITY           SKY/WX    TMP DP  RH WIND       PRES   REMARKS
NORTH PLATTE   SUNNY     78  21  12 NW21G26   29.98F
IMPERIAL         N/A     77  16  10 NW14G22   30.02F
MCCOOK         SUNNY     81  20  10 N14G22    29.97F
$$

NEZ005>010-023>029-035>040-094-302200-
NORTH CENTRAL NEBRASKA

CITY           SKY/WX    TMP DP  RH WIND       PRES   REMARKS
VALENTINE      SUNNY     72  28  19 NW15G25   29.99F
AINSWORTH      SUNNY     72  26  18 NW20G26   29.99S
BROKEN BOW     MOSUNNY   76  23  14 NW15G29   29.97F
ORD            PTSUNNY   76  22  13 W12G18    29.94F
$$

NEZ041-046>049-061>064-073>077-083>087-302200-
SOUTH CENTRAL NEBRASKA

CITY           SKY/WX    TMP DP  RH WIND       PRES   REMARKS
GRAND ISLAND   PTSUNNY   76  26  15 NW8       29.96F
AURORA         PTSUNNY   75  25  15 NW12      29.95F
HASTINGS       SUNNY     78  28  16 NW13G18   29.94F
KEARNEY *      SUNNY     75  27  16 N10       29.96F
YORK           PTSUNNY   75  28  17 NW10G23   29.94F
$$

NEZ011>018-030>034-042>045-302200-
NORTHEAST NEBRASKA

CITY           SKY/WX    TMP DP  RH WIND       PRES   REMARKS
NORFOLK        MOSUNNY   78  25  14 W18G25    29.90F
BLAIR          SUNNY     77  27  15 W15G28    29.91F
COLUMBUS *     MOSUNNY   75  28  17 SW13      29.94F
TEKAMAH        MOSUNNY   80  25  13 W22G32    29.88F
$$

NEZ050>053-065>068-078-088>093-302200-
SOUTHEAST NEBRASKA

CITY           SKY/WX    TMP DP  RH WIND       PRES   REMARKS
LINCOLN        PTSUNNY   75  32  20 W14G25    29.95F
OMAHA EPPLEY   PTSUNNY   77  31  18 SW17G28   29.90F
FALLS CITY     MOSUNNY   74  25  16 SW14      29.96F
NEBRASKA CITY  SUNNY     76  22  13 W22       29.95F
$$

NEZ044-045-051>053-067-302200-
OMAHA AREA

CITY           SKY/WX    TMP DP  RH WIND       PRES   REMARKS
OMAHA EPPLEY   PTSUNNY   77  31  18 SW17G28   29.90F
BLAIR          SUNNY     77  27  15 W15G28    29.91F
OFFUTT AFB     SUNNY     76  31  19 SW20G31   29.91F
WAHOO          FAIR      77  24  14 SW20      29.92F
$$


USA.gov is the U.S. government's official web portal to all federal, state and local government web resources and services.